Location: Sternwarte Stuttgart
(48.7670°N, 9.1830°E)
Time: 05:40:59
(UTC+01:00)

Cosmos 2058 - Pass Details

Date: 24 January 2019
Orbit: 562 x 585 km, 82.5° (Epoch: 22 February)

Event Time Altitude Azimuth Distance (km) Brightness Sun altitude
Rises 06:48:42 0° 346° (NNW) 2,769 6.1 -12.2°
Reaches altitude 10° 06:50:56 10° 341° (NNW) 1,867 5.2 -11.9°
Maximum altitude 06:54:55 52° 265° (W) 710 3.0 -11.2°
Drops below altitude 10° 06:58:53 10° 189° (S) 1,852 5.6 -10.6°
Sets 07:01:05 0° 185° (S) 2,745 6.6 -10.3°
